Regional Weather Roundup
Issued by NWS Charleston, SC

Current Version | Previous Version | Graphics & Text | Print | Product List | Glossary On
Versions: 1 2 3 4 5 6 7 8 9 10 11 12 13 14 15 16 17 18 19 20 21 22 23 24 25 26 27 28 29 30 31 32 33 34 35 36 37 38 39 40 41 42 43 44 45 46 47 48 49 50
786
ASUS42 KCHS 200627
RWRCHS

REGIONAL WEATHER ROUNDUP
NATIONAL WEATHER SERVICE CHARLESTON SC
100 AM EST FRI JAN 20 2017

NOTE: "FAIR" INDICATES FEW OR NO CLOUDS BELOW 12,000 FEET WITH NO
SIGNIFICANT WEATHER AND/OR OBSTRUCTIONS TO VISIBILITY.

NOT ALL STATIONS ARE QUALITY CONTROLLED. USE DATA WITH CAUTION...
ESPECIALLY DEWPOINT OBSERVATIONS.

SCZ027-030-031-034>040-042>050-200700-
...SOUTHEAST SOUTH CAROLINA...

CITY           SKY/WX    TMP DP  RH WIND       PRES   REMARKS
N CHARLESTON   CLOUDY    56  52  86 NE3       29.95F
6HR MIN TEMP:  55; 6HR MAX TEMP:  60;

WATERFRONT PRK   N/A     58  56  92 VRB2      29.95F
MOUNT PLEASANT LGT RAIN  55  55 100 CALM      29.96S
JOHNS ISLAND   FAIR      57  55  94 CALM      29.96S
PINOPOLIS        N/A     55  52  88 CALM      29.89F
MONCKS CORNER  FAIR      54  50  87 CALM      29.96F
SUMMERVILLE    FAIR      54  54 100 CALM      29.97S
BEAUFORT MCAS  CLOUDY    58  56  93 CALM      29.96S
6HR MIN TEMP:  58; 6HR MAX TEMP:  61;

BEAUFORT ARPT  FAIR      55  55 100 CALM      29.95F
HILTON HEAD IS CLOUDY    57  55  94 CALM      29.97S
WALTERBORO     CLOUDY    54  52  94 CALM      29.96F
ALLENDALE      MOCLDY    59  57  94 CALM      29.94F

...SOUTHERN MIDLANDS AND PEE DEE...

CITY           SKY/WX    TMP DP  RH WIND       PRES   REMARKS
GEORGETOWN     FAIR      50  50 100 CALM      29.97F
KINGSTREE      FAIR      52  48  87 CALM      29.96F
ORANGEBURG     PTCLDY    56  52  86 SE5       29.95F
6HR MIN TEMP:  56; 6HR MAX TEMP:  60;

BARNWELL       FAIR      61  59  94 S7        29.94F
AIKEN          FAIR      55  54  94 SE9       29.95F
MANNING        FAIR      50  41  71 CALM      29.96F
COLUMBIA       CLOUDY    56  47  71 E5        29.94F
6HR MIN TEMP:  53; 6HR MAX TEMP:  62;

SUMTER         CLOUDY    53  47  82 CALM      29.93F
6HR MIN TEMP:  52; 6HR MAX TEMP:  55;

FLORENCE       CLOUDY    51  46  83 E3        29.97F
6HR MIN TEMP:  51; 6HR MAX TEMP:  58;

MYRTLE BEACH   CLOUDY    57  50  77 E6        30.00R
N MYRTLE BEACH CLOUDY    54  51  90 NE3       29.97F
6HR MIN TEMP:  52; 6HR MAX TEMP:  56;


$$

GAZ063-065-086>088-099>101-113>116-118-119-134>141-150-200700-
...SOUTHEAST GEORGIA...

CITY           SKY/WX    TMP DP  RH WIND       PRES   REMARKS
SAVANNAH ARPT  CLOUDY    58  56  93 CALM      29.96F FOG
6HR MIN TEMP:  58; 6HR MAX TEMP:  60;

HUNTER AAF     FOG       57  57 100 CALM      29.93F VSB 1
FORT STEWART   CLOUDY    57  55  91 CALM      29.93F
6HR MIN TEMP:  56; 6HR MAX TEMP:  63;

STATESBORO     CLOUDY    60  57  92 CALM      29.94F
SYLVANIA       CLOUDY   N/A N/A N/A CALM      29.94F
CLAXTON        MOCLDY   N/A N/A N/A CALM      29.94F

...CSRA...CENTRAL AND FAR SOUTHEAST GEORGIA...

CITY           SKY/WX    TMP DP  RH WIND       PRES   REMARKS
THOMSON        CLOUDY    64  58  81 S5        29.93F
AUGUSTA-BUSH   CLOUDY    62  55  77 SE8       29.93F
6HR MIN TEMP:  62; 6HR MAX TEMP:  67;

AUGUSTA-DANIEL CLOUDY    61  52  72 SE8       29.93F
SWAINSBORO     FAIR      63  59  88 S5        29.93F
VIDALIA        CLOUDY    63  63 100 SE3       29.94F
EASTMAN        MOCLDY    67  56  69 SW3       29.95R
HAZLEHURST     FAIR      65  65 100 S3        29.92F
ALMA           CLOUDY    63  62  97 CALM      29.94F
6HR MIN TEMP:  62; 6HR MAX TEMP:  66;

WAYCROSS       CLOUDY    66  66 100 S5        29.94F
JESUP          FAIR      61  57  88 CALM      29.95F
BAXLEY         FAIR      64  64 100 CALM      29.94S
BRUNSWICK      CLOUDY    64  63  94 S5        29.96F
SAINT SIMONS   CLOUDY    64  61  90 SW6       29.97S
6HR MIN TEMP:  63; 6HR MAX TEMP:  65;


$$

SCZ027-028-034-036>038-045-046-048>050-GAZ119-141-200700-
...LAKE AND SUPPLEMENTAL COASTAL OBSERVATIONS...

STATION/POSITION TIME  TEMP    WIND        PRES    WAVE   SWELL
                       AIR SEA DIR/SP/G            HT/PER HT/PER/DIR
                 (UTC) (F)     (DEG/KT/KT) (MB)    (FT/S) (FT/S/D)
WINYAH BAY       0530   56      40/  2     1014.0F
LAKE MURRAY      0520   58     130/  3/  7 1013.5F
ACE BASIN NERRS  0545   57        CALM     1014.0F
FORT PULASKI     0600   57 58  110/  2/  2 1014.8
SAPELO ISLAND    0530   58        CALM     1015.0R

$$

ANZ835-935-AMZ111-154-330-350-352-354-370-450-454-472-200700-
...C-MAN AND BUOY OBSERVATIONS...

STATION/POSITION TIME  TEMP    WIND        PRES    WAVE   SWELL
                       AIR SEA DIR/SP/G            HT/PER HT/PER/DIR
                 (UTC) (F)     (DEG/KT/KT) (MB)    (FT/S) (FT/S/D)
BUOY 41004       0550   69 72   80/  6/  8 1013.5F   3/ 7   2/ 70/ 7
BUOY 41008       0550   61 60  170/  2/  2 1014.2R   2/10   2/ 40/10
FOLLY BEACH CMAN 0600   58      40/  6/  6 1014.8F
CAPERS NEARSHORE 0508   56 55   40/  4/  6 1014.3F
FRIPP NEARSHORE  0608   58 58   40/  2/  2 1014.1R


STATION/POSITION TIME  TEMP    WIND        PRES    WAVE   SWELL
                       AIR SEA DIR/SP/G            HT/PER HT/PER/DIR
                 (UTC) (F)     (DEG/KT/KT) (MB)    (FT/S) (FT/S/D)
5E ST. MARYS GA  0600      63                N/A     1/10
FRYING PAN BUOY  0610   67 71   90/  8/ 12 1014.1
BUOY 41025       0550   57 76   50/  4/  8 1016.3R   4/11   3/ 40/11
CAPE LOOKOUT NC  0600   55      20/  1/  3 1015.3F
BUOY 41002       0550   67 71   CALM  /  2 1015.2F   5/ 9   5/ 20/ 9
BUOY 41010       NOT AVBL
ST AUGUSTINE FL  0600   64 62  210/  3/  4 1015.4F


$$




USA.gov is the U.S. government's official web portal to all federal, state and local government web resources and services.